Home   Weather   Riehen   Past weeks

Flag for Switzerland Past Weather in Riehen, Basel-Stadt, Switzerland — Yesterday and Last 2 Weeks

45 °F


Feels Like: 44 °F
Forecast: 39 / 59 °F
Wind: 3 mph from West

Location: Bale-Mulhouse

Current Time: Oct 27, 2016 at 8:45:41 PM

Latest Report: Oct 27, 2016 at 8:00 PM

Visibility: 4 mi

Pressure: 30.57 "Hg

Humidity: 94%

Dew Point: 44 °F

Location of RiehenLocation

Past Weather in Riehen — Graph


Riehen Temperature Yesterday

Maximum temperature yesterday: 54 °F (at 5:00 PM)
Minimum temperature yesterday: 50 °F (at 9:00 AM)
Average temperature yesterday: 52 °F

High & Low Weather Summary for the Past Weeks

High66 °F (Oct 16, 3:00 PM)99% (Oct 13, 9:00 AM)30.58 "Hg (Oct 13, 9:00 AM)
Low31 °F (Oct 13, 2:00 AM)49% (Oct 22, 4:00 PM)29.64 "Hg (Oct 14, 6:00 PM)
Average50 °F86%30.08 "Hg
* Reported Oct 12 7:00 PM — Oct 27 7:00 PM, Riehen, Weather by CustomWeather, © 2016

Note: Actual official high and low records may vary slightly from our data, if they occured in-between our weather recording intervals... More about our weather records


Riehen Weather History for the Previous 24 Hours

Scroll right to see more
Time TempWeatherWind HumidityBarometerVisibility
7:00 PM
Thu, Oct 27
47 °FPassing clouds.2 mph91%30.55 "Hg5 mi
6:00 PM52 °FPassing clouds.5 mph77%30.53 "Hg9 mi
5:00 PM55 °FPassing clouds.6 mph71%30.53 "Hg9 mi
4:00 PM55 °FPassing clouds.5 mph72%30.53 "Hg9 mi
3:00 PM54 °FPassing clouds.5 mph79%30.53 "Hg9 mi
2:00 PM50 °FLow clouds.5 mph87%30.56 "Hg4 mi
1:00 PM49 °FFog.5 mph93%30.58 "Hg1 mi
12:00 PM47 °FFog.3 mph97%30.58 "Hg1 mi
11:00 AM46 °FFog.3 mph99%30.58 "Hg1 mi
10:00 AM45 °FFog.3 mph99%30.58 "Hg0 mi
9:00 AM45 °FFog.5 mph98%30.55 "Hg0 mi
8:00 AM45 °FLight rain. Dense fog.2 mph99%30.52 "Hg0 mi
7:00 AM46 °FFog.5 mph99%30.51 "Hg0 mi
6:00 AM46 °FFog.3 mph98%30.50 "Hg0 mi
5:00 AM46 °FFog.6 mph97%30.49 "Hg1 mi
4:00 AM47 °FLow clouds.3 mph94%30.48 "Hg4 mi
3:00 AM47 °FLow clouds.6 mph93%30.48 "Hg4 mi
2:00 AM48 °FPassing clouds.6 mph93%30.47 "Hg4 mi
1:00 AM50 °FOvercast.6 mph93%30.46 "Hg5 mi
12:00 AM50 °FOvercast.5 mph92%30.45 "Hg4 mi
11:00 PM
Wed, Oct 26
50 °FOvercast.5 mph93%30.44 "Hg5 mi
10:00 PM51 °FOvercast.6 mph95%30.42 "Hg4 mi
9:00 PM51 °FOvercast.5 mph95%30.42 "Hg3 mi
8:00 PM53 °FOvercast.3 mph93%30.39 "Hg4 mi
Weather by CustomWeather, © 2016

See weather overviewHow to use our weather pages